Location: Sternwarte auf dem Internationalen Platz Vogelsang IP
(50.5721°N, 6.4398°E)
Time: 19:18:11
(UTC+01:00)

Transit 2A Rocket - Pass Details

Date: 12 December 2025
Orbit: 581 x 903 km, 66.7° (Epoch: 15 January)

Event Time Altitude Azimuth Distance (km) Brightness Sun altitude
Rises 10:38:30 0° 239° (WSW) 3,341 8.4 12.4°
Reaches altitude 10° 10:40:59 10° 246° (WSW) 2,454 7.7 12.6°
Maximum altitude 10:46:28 45° 319° (NW) 1,181 5.8 13.0°
Drops below altitude 10° 10:52:15 10° 31° (NNE) 2,584 7.4 13.3°
Sets 10:54:56 0° 38° (NE) 3,535 8.1 13.5°
